Time,TemperatureF,DewpointF,PressureIn,WindDirection,WindDirectionDegrees,WindSpeedMPH,WindSpeedGustMPH,Humidity,HourlyPrecipIn,Conditions,Clouds,dailyrainin,SoftwareType,DateUTC
2013-08-22 00:02:00,75.4,69.5,29.97,West,261,0.0,0.0,82,0.00,,,0.00,Wunderground v.1.15,2013-08-22 05:02:00,
2013-08-22 00:07:00,74.9,69.4,29.97,West,261,0.0,1.0,83,0.00,,,0.00,Wunderground v.1.15,2013-08-22 05:07:00,
2013-08-22 00:13:00,74.3,69.1,29.97,West,261,0.0,0.0,84,0.00,,,0.00,Wunderground v.1.15,2013-08-22 05:13:00,
2013-08-22 00:18:00,73.9,69.1,29.97,West,261,0.0,0.0,85,0.00,,,0.00,Wunderground v.1.15,2013-08-22 05:18:00,
2013-08-22 00:23:00,73.7,69.2,29.97,West,261,0.0,0.0,86,0.00,,,0.00,Wunderground v.1.15,2013-08-22 05:23:00,
2013-08-22 00:28:00,73.5,69.1,29.97,West,261,0.0,0.0,86,0.00,,,0.00,Wunderground v.1.15,2013-08-22 05:28:00,
2013-08-22 00:33:00,73.4,69.0,29.98,West,261,0.0,0.0,86,0.00,,,0.00,Wunderground v.1.15,2013-08-22 05:33:00,
2013-08-22 00:39:00,73.0,68.9,29.98,West,261,0.0,0.0,87,0.00,,,0.00,Wunderground v.1.15,2013-08-22 05:39:00,
2013-08-22 00:44:00,73.0,69.2,29.98,East,88,0.0,1.0,88,0.00,,,0.00,Wunderground v.1.15,2013-08-22 05:44:00,
2013-08-22 00:49:00,73.4,69.6,29.99,ESE,111,3.0,3.0,88,0.00,,,0.00,Wunderground v.1.15,2013-08-22 05:49:00,
2013-08-22 00:54:00,73.8,69.7,29.99,ESE,107,4.0,4.0,87,0.00,,,0.00,Wunderground v.1.15,2013-08-22 05:54:00,
2013-08-22 00:59:00,74.1,69.6,29.99,ESE,110,1.0,5.0,86,0.00,,,0.00,Wunderground v.1.15,2013-08-22 05:59:00,
2013-08-22 01:05:00,74.4,69.6,30.00,ESE,116,0.0,2.0,85,0.00,,,0.00,Wunderground v.1.15,2013-08-22 06:05:00,
2013-08-22 01:10:00,74.4,69.6,30.00,SE,138,1.0,1.0,85,0.00,,,0.00,Wunderground v.1.15,2013-08-22 06:10:00,
2013-08-22 01:15:00,74.3,69.1,30.00,SSE,148,3.0,3.0,84,0.00,,,0.00,Wunderground v.1.15,2013-08-22 06:15:00,
2013-08-22 01:20:00,73.9,68.1,30.00,SSE,151,12.0,12.0,82,0.00,,,0.00,Wunderground v.1.15,2013-08-22 06:20:00,
2013-08-22 01:25:00,72.8,66.3,30.00,SSE,167,12.0,12.0,80,0.00,,,0.00,Wunderground v.1.15,2013-08-22 06:25:00,
2013-08-22 01:30:00,71.9,65.8,30.00,South,174,7.0,7.0,81,0.00,,,0.00,Wunderground v.1.15,2013-08-22 06:30:00,
2013-08-22 01:36:00,71.2,65.4,30.01,SSE,168,5.0,7.0,82,0.00,,,0.00,Wunderground v.1.15,2013-08-22 06:36:00,
2013-08-22 01:41:00,70.8,65.4,30.00,SSE,148,5.0,5.0,83,0.00,,,0.00,Wunderground v.1.15,2013-08-22 06:41:00,
2013-08-22 01:46:00,70.6,65.5,30.00,South,180,7.0,8.0,84,0.00,,,0.00,Wunderground v.1.15,2013-08-22 06:46:00,
2013-08-22 01:51:00,70.3,65.2,30.00,SE,142,13.0,13.0,84,0.00,,,0.00,Wunderground v.1.15,2013-08-22 06:51:00,
2013-08-22 01:56:00,70.1,65.4,30.00,SSE,159,5.0,13.0,85,0.00,,,0.00,Wunderground v.1.15,2013-08-22 06:56:00,
2013-08-22 02:01:00,69.8,65.4,30.00,South,171,9.0,9.0,86,0.00,,,0.00,Wunderground v.1.15,2013-08-22 07:01:00,
2013-08-22 02:06:00,69.7,65.3,30.00,SW,215,8.0,11.0,86,0.00,,,0.00,Wunderground v.1.15,2013-08-22 07:06:00,
2013-08-22 02:11:00,69.7,65.7,30.00,SSW,198,11.0,11.0,87,0.00,,,0.00,Wunderground v.1.15,2013-08-22 07:11:00,
2013-08-22 02:16:00,69.6,65.6,30.01,SSW,198,9.0,11.0,87,0.00,,,0.00,Wunderground v.1.15,2013-08-22 07:16:00,
2013-08-22 02:22:00,69.4,65.4,30.00,South,188,6.0,6.0,87,0.00,,,0.00,Wunderground v.1.15,2013-08-22 07:22:00,
2013-08-22 02:28:00,69.2,65.2,30.00,SSW,194,2.0,8.0,87,0.00,,,0.00,Wunderground v.1.15,2013-08-22 07:28:00,
2013-08-22 02:33:00,69.1,65.4,29.99,South,178,3.0,10.0,88,0.00,,,0.00,Wunderground v.1.15,2013-08-22 07:33:00,
2013-08-22 02:38:00,69.0,65.3,29.99,South,191,1.0,10.0,88,0.00,,,0.00,Wunderground v.1.15,2013-08-22 07:38:00,
2013-08-22 02:43:00,68.9,65.2,29.99,South,187,4.0,5.0,88,0.00,,,0.00,Wunderground v.1.15,2013-08-22 07:43:00,
2013-08-22 02:48:00,68.9,65.2,29.99,SSW,209,1.0,5.0,88,0.00,,,0.00,Wunderground v.1.15,2013-08-22 07:48:00,
2013-08-22 02:53:00,68.9,65.2,29.99,South,187,3.0,5.0,88,0.00,,,0.00,Wunderground v.1.15,2013-08-22 07:53:00,
2013-08-22 02:59:00,68.8,65.1,29.99,South,182,2.0,5.0,88,0.00,,,0.00,Wunderground v.1.15,2013-08-22 07:59:00,
2013-08-22 03:04:00,68.7,65.0,29.99,SSW,200,2.0,5.0,88,0.00,,,0.00,Wunderground v.1.15,2013-08-22 08:04:00,
2013-08-22 03:09:00,68.7,65.0,29.99,SSW,207,2.0,5.0,88,0.00,,,0.00,Wunderground v.1.15,2013-08-22 08:09:00,
2013-08-22 03:15:00,68.6,64.9,29.99,SE,144,3.0,4.0,88,0.00,,,0.00,Wunderground v.1.15,2013-08-22 08:15:00,
2013-08-22 03:20:00,68.5,64.8,29.99,South,189,1.0,2.0,88,0.00,,,0.00,Wunderground v.1.15,2013-08-22 08:20:00,
2013-08-22 03:25:00,68.5,65.1,29.99,SSW,205,2.0,6.0,89,0.00,,,0.00,Wunderground v.1.15,2013-08-22 08:25:00,
2013-08-22 03:30:00,68.4,65.0,29.99,SSW,205,1.0,3.0,89,0.00,,,0.00,Wunderground v.1.15,2013-08-22 08:30:00,
2013-08-22 03:36:00,68.4,65.0,29.99,SSW,193,2.0,7.0,89,0.00,,,0.00,Wunderground v.1.15,2013-08-22 08:36:00,
2013-08-22 03:41:00,68.6,65.2,29.99,SSW,204,4.0,4.0,89,0.00,,,0.00,Wunderground v.1.15,2013-08-22 08:41:00,
2013-08-22 03:46:00,68.8,65.4,29.99,SSW,197,4.0,6.0,89,0.00,,,0.00,Wunderground v.1.15,2013-08-22 08:46:00,
2013-08-22 03:52:00,69.0,65.6,29.99,SSW,206,1.0,1.0,89,0.00,,,0.00,Wunderground v.1.15,2013-08-22 08:52:00,
2013-08-22 03:57:00,69.2,65.5,29.99,South,182,3.0,5.0,88,0.00,,,0.00,Wunderground v.1.15,2013-08-22 08:57:00,
2013-08-22 04:02:00,69.4,65.7,29.99,South,186,5.0,6.0,88,0.00,,,0.00,Wunderground v.1.15,2013-08-22 09:02:00,
2013-08-22 04:07:00,69.5,65.8,29.99,SSW,208,1.0,7.0,88,0.00,,,0.00,Wunderground v.1.15,2013-08-22 09:07:00,
2013-08-22 04:12:00,69.5,65.5,29.99,SSW,197,3.0,4.0,87,0.00,,,0.00,Wunderground v.1.15,2013-08-22 09:12:00,
2013-08-22 04:17:00,69.5,65.5,29.99,SSW,196,3.0,7.0,87,0.00,,,0.00,Wunderground v.1.15,2013-08-22 09:17:00,
2013-08-22 04:22:00,69.4,65.4,29.99,South,184,1.0,3.0,87,0.00,,,0.00,Wunderground v.1.15,2013-08-22 09:22:00,
2013-08-22 04:27:00,69.2,65.2,29.99,SSW,198,2.0,3.0,87,0.00,,,0.00,Wunderground v.1.15,2013-08-22 09:27:00,
2013-08-22 04:32:00,69.0,65.3,29.99,SSW,198,1.0,3.0,88,0.00,,,0.00,Wunderground v.1.15,2013-08-22 09:32:00,
2013-08-22 04:37:00,68.9,65.5,29.99,South,186,2.0,3.0,89,0.00,,,0.00,Wunderground v.1.15,2013-08-22 09:37:00,
2013-08-22 04:42:00,68.9,65.5,29.99,SSW,206,1.0,3.0,89,0.00,,,0.00,Wunderground v.1.15,2013-08-22 09:42:00,
2013-08-22 04:48:00,68.7,65.3,29.99,SSW,202,2.0,3.0,89,0.00,,,0.00,Wunderground v.1.15,2013-08-22 09:48:00,
2013-08-22 04:53:00,68.7,65.3,29.98,SW,218,2.0,6.0,89,0.00,,,0.00,Wunderground v.1.15,2013-08-22 09:53:00,
2013-08-22 04:58:00,68.6,65.2,29.98,SSW,211,4.0,6.0,89,0.00,,,0.00,Wunderground v.1.15,2013-08-22 09:58:00,
2013-08-22 05:04:00,68.6,65.2,29.98,South,180,2.0,4.0,89,0.00,,,0.00,Wunderground v.1.15,2013-08-22 10:04:00,
2013-08-22 05:10:00,68.6,65.2,29.98,SSW,208,1.0,5.0,89,0.00,,,0.00,Wunderground v.1.15,2013-08-22 10:10:00,
2013-08-22 05:15:00,68.5,65.1,29.98,SSW,194,2.0,4.0,89,0.00,,,0.00,Wunderground v.1.15,2013-08-22 10:15:00,
2013-08-22 05:20:00,68.3,64.9,29.98,South,190,2.0,4.0,89,0.00,,,0.00,Wunderground v.1.15,2013-08-22 10:20:00,
2013-08-22 05:25:00,68.2,65.2,29.98,South,189,3.0,5.0,90,0.00,,,0.00,Wunderground v.1.15,2013-08-22 10:25:00,
2013-08-22 05:30:00,68.1,65.1,29.98,SSW,195,3.0,5.0,90,0.00,,,0.00,Wunderground v.1.15,2013-08-22 10:30:00,
2013-08-22 05:35:00,68.0,65.0,29.98,SSW,196,1.0,4.0,90,0.00,,,0.00,Wunderground v.1.15,2013-08-22 10:35:00,
2013-08-22 05:40:00,67.9,64.9,29.98,SSW,196,2.0,4.0,90,0.00,,,0.00,Wunderground v.1.15,2013-08-22 10:40:00,
2013-08-22 05:45:00,67.8,65.1,29.98,SSW,197,1.0,5.0,91,0.00,,,0.00,Wunderground v.1.15,2013-08-22 10:45:00,
2013-08-22 05:50:00,67.7,65.0,29.98,South,191,1.0,5.0,91,0.00,,,0.00,Wunderground v.1.15,2013-08-22 10:50:00,
2013-08-22 07:27:00,69.6,67.2,29.98,SSW,192,0.0,3.0,92,0.00,,,0.00,Wunderground v.1.15,2013-08-22 12:27:00,
2013-08-22 07:32:00,69.9,67.5,29.98,SSW,193,0.0,1.0,92,0.00,,,0.00,Wunderground v.1.15,2013-08-22 12:32:00,
2013-08-22 07:37:00,70.2,67.8,29.98,SSW,193,0.0,1.0,92,0.00,,,0.00,Wunderground v.1.15,2013-08-22 12:37:00,
2013-08-22 07:42:00,70.5,68.1,29.99,SSW,193,0.0,0.0,92,0.00,,,0.00,Wunderground v.1.15,2013-08-22 12:42:00,
2013-08-22 07:47:00,70.8,68.0,29.99,SSW,193,0.0,1.0,91,0.00,,,0.00,Wunderground v.1.15,2013-08-22 12:47:00,
2013-08-22 07:52:00,70.9,68.1,29.99,SSW,193,0.0,2.0,91,0.00,,,0.00,Wunderground v.1.15,2013-08-22 12:52:00,
2013-08-22 07:57:00,71.1,68.0,29.99,WNW,287,1.0,2.0,90,0.00,,,0.00,Wunderground v.1.15,2013-08-22 12:57:00,
2013-08-22 08:01:00,71.1,68.0,29.99,WNW,287,0.0,2.0,90,0.00,,,0.00,Wunderground v.1.15,2013-08-22 13:01:00,
2013-08-22 08:07:00,71.2,68.1,29.99,WNW,287,1.0,2.0,90,0.00,,,0.00,Wunderground v.1.15,2013-08-22 13:07:00,
2013-08-22 08:12:00,71.3,68.2,29.99,WNW,287,0.0,1.0,90,0.00,,,0.00,Wunderground v.1.15,2013-08-22 13:12:00,
2013-08-22 08:17:00,71.4,68.3,29.99,WNW,287,0.0,1.0,90,0.00,,,0.00,Wunderground v.1.15,2013-08-22 13:17:00,
2013-08-22 08:22:00,71.4,68.3,29.99,WNW,287,0.0,0.0,90,0.00,,,0.00,Wunderground v.1.15,2013-08-22 13:22:00,
2013-08-22 08:27:00,71.5,68.4,29.99,WNW,287,0.0,0.0,90,0.00,,,0.00,Wunderground v.1.15,2013-08-22 13:27:00,
2013-08-22 08:32:00,71.5,68.4,29.98,WNW,287,0.0,0.0,90,0.00,,,0.00,Wunderground v.1.15,2013-08-22 13:32:00,
2013-08-22 08:38:00,71.6,68.5,29.99,WNW,287,0.0,0.0,90,0.00,,,0.00,Wunderground v.1.15,2013-08-22 13:38:00,
2013-08-22 08:43:00,71.6,68.5,29.99,WNW,287,0.0,0.0,90,0.00,,,0.00,Wunderground v.1.15,2013-08-22 13:43:00,
2013-08-22 08:48:00,71.7,68.6,30.00,WNW,287,0.0,1.0,90,0.00,,,0.00,Wunderground v.1.15,2013-08-22 13:48:00,
2013-08-22 08:53:00,71.8,68.7,30.01,WNW,287,1.0,1.0,90,0.00,,,0.00,Wunderground v.1.15,2013-08-22 13:53:00,
2013-08-22 08:59:00,71.7,68.6,30.02,WSW,254,0.0,3.0,90,0.00,,,0.00,Wunderground v.1.15,2013-08-22 13:59:00,
2013-08-22 09:04:00,71.6,68.8,30.03,WSW,257,0.0,2.0,91,0.00,,,0.00,Wunderground v.1.15,2013-08-22 14:04:00,
2013-08-22 09:09:00,71.6,68.8,30.02,WSW,257,0.0,2.0,91,0.00,,,0.00,Wunderground v.1.15,2013-08-22 14:09:00,
2013-08-22 09:14:00,71.6,68.8,30.02,WSW,257,1.0,1.0,91,0.00,,,0.00,Wunderground v.1.15,2013-08-22 14:14:00,
2013-08-22 09:19:00,71.5,68.7,30.01,NW,304,0.0,2.0,91,0.00,,,0.00,Wunderground v.1.15,2013-08-22 14:19:00,
2013-08-22 09:24:00,71.4,68.6,30.01,NW,304,0.0,1.0,91,0.00,,,0.00,Wunderground v.1.15,2013-08-22 14:24:00,
2013-08-22 09:29:00,71.4,68.6,30.02,NNW,331,0.0,3.0,91,0.00,,,0.00,Wunderground v.1.15,2013-08-22 14:29:00,
2013-08-22 09:34:00,71.3,68.5,30.03,NNW,331,1.0,2.0,91,0.00,,,0.00,Wunderground v.1.15,2013-08-22 14:34:00,
2013-08-22 09:39:00,71.4,68.6,30.03,NNW,331,0.0,2.0,91,0.00,,,0.00,Wunderground v.1.15,2013-08-22 14:39:00,
2013-08-22 09:44:00,71.3,68.9,30.03,SW,236,2.0,2.0,92,0.00,,,0.00,Wunderground v.1.15,2013-08-22 14:44:00,
2013-08-22 09:49:00,71.1,68.7,30.03,SW,236,0.0,3.0,92,0.00,,,0.00,Wunderground v.1.15,2013-08-22 14:49:00,
2013-08-22 09:54:00,71.0,68.6,30.03,SW,236,0.0,1.0,92,0.32,,,0.01,Wunderground v.1.15,2013-08-22 14:54:00,
2013-08-22 10:00:00,70.9,68.8,30.05,NW,312,2.0,2.0,93,0.19,,,0.03,Wunderground v.1.15,2013-08-22 15:00:00,
2013-08-22 10:05:00,70.8,68.7,30.06,NW,310,4.0,4.0,93,1.23,,,0.08,Wunderground v.1.15,2013-08-22 15:05:00,
2013-08-22 10:11:00,70.4,68.3,30.05,NW,304,3.0,3.0,93,4.68,,,0.28,Wunderground v.1.15,2013-08-22 15:11:00,
2013-08-22 10:16:00,70.1,68.3,30.05,NW,315,14.0,14.0,94,5.82,,,0.60,Wunderground v.1.15,2013-08-22 15:16:00,
2013-08-22 10:21:00,69.6,67.8,30.05,WNW,296,10.0,15.0,94,4.97,,,0.96,Wunderground v.1.15,2013-08-22 15:21:00,
2013-08-22 10:26:00,68.3,66.2,30.06,NW,308,20.0,23.0,93,1.67,,,1.18,Wunderground v.1.15,2013-08-22 15:26:00,
2013-08-22 10:32:00,66.9,65.1,30.08,NW,308,14.0,17.0,94,1.32,,,1.29,Wunderground v.1.15,2013-08-22 15:32:00,
2013-08-22 10:37:00,66.6,65.1,30.10,NW,315,6.0,17.0,95,0.55,,,1.34,Wunderground v.1.15,2013-08-22 15:37:00,
2013-08-22 10:42:00,66.4,65.2,30.11,NW,323,9.0,10.0,96,0.46,,,1.38,Wunderground v.1.15,2013-08-22 15:42:00,
2013-08-22 10:47:00,66.4,65.2,30.11,NW,313,6.0,13.0,96,0.23,,,1.40,Wunderground v.1.15,2013-08-22 15:47:00,
2013-08-22 10:52:00,66.5,65.3,30.11,NW,314,9.0,19.0,96,0.13,,,1.41,Wunderground v.1.15,2013-08-22 15:52:00,
2013-08-22 10:57:00,66.5,65.3,30.12,NW,322,8.0,19.0,96,0.19,,,1.42,Wunderground v.1.15,2013-08-22 15:57:00,
2013-08-22 11:02:00,66.5,65.6,30.12,NW,326,7.0,14.0,97,0.26,,,1.44,Wunderground v.1.15,2013-08-22 16:02:00,
2013-08-22 11:07:00,66.4,65.5,30.12,WNW,297,12.0,14.0,97,0.22,,,1.46,Wunderground v.1.15,2013-08-22 16:07:00,
2013-08-22 11:12:00,66.4,65.5,30.12,NW,309,6.0,14.0,97,0.13,,,1.47,Wunderground v.1.15,2013-08-22 16:12:00,
2013-08-22 11:17:00,66.4,65.2,30.12,NW,322,3.0,14.0,96,0.15,,,1.48,Wunderground v.1.15,2013-08-22 16:17:00,
2013-08-22 11:22:00,66.5,65.6,30.12,NW,313,1.0,6.0,97,0.31,,,1.51,Wunderground v.1.15,2013-08-22 16:22:00,
2013-08-22 11:27:00,66.5,65.6,30.11,NW,324,0.0,6.0,97,0.19,,,1.52,Wunderground v.1.15,2013-08-22 16:27:00,
2013-08-22 11:32:00,66.5,65.6,30.11,NNW,339,0.0,4.0,97,0.08,,,1.52,Wunderground v.1.15,2013-08-22 16:32:00,
2013-08-22 11:38:00,66.5,65.6,30.10,NW,313,0.0,4.0,97,0.21,,,1.54,Wunderground v.1.15,2013-08-22 16:38:00,
2013-08-22 11:43:00,66.5,65.6,30.10,NW,313,0.0,1.0,97,0.14,,,1.55,Wunderground v.1.15,2013-08-22 16:43:00,
2013-08-22 11:48:00,66.6,65.7,30.10,NW,312,0.0,2.0,97,0.13,,,1.56,Wunderground v.1.15,2013-08-22 16:48:00,
2013-08-22 11:53:00,66.6,65.7,30.09,NW,312,0.0,1.0,97,0.29,,,1.59,Wunderground v.1.15,2013-08-22 16:53:00,
2013-08-22 11:58:00,66.8,65.9,30.08,South,190,1.0,1.0,97,0.19,,,1.61,Wunderground v.1.15,2013-08-22 16:58:00,
2013-08-22 12:03:00,67.0,66.1,30.09,South,190,1.0,1.0,97,0.15,,,1.62,Wunderground v.1.15,2013-08-22 17:03:00,
2013-08-22 12:09:00,67.1,66.2,30.09,South,190,0.0,1.0,97,0.12,,,1.63,Wunderground v.1.15,2013-08-22 17:09:00,
2013-08-22 12:14:00,67.1,66.2,30.09,South,190,0.0,0.0,97,0.06,,,1.63,Wunderground v.1.15,2013-08-22 17:14:00,
2013-08-22 12:20:00,67.2,66.3,30.09,South,190,0.0,0.0,97,0.05,,,1.64,Wunderground v.1.15,2013-08-22 17:20:00,
2013-08-22 12:25:00,67.3,66.4,30.08,South,190,2.0,2.0,97,0.05,,,1.64,Wunderground v.1.15,2013-08-22 17:25:00,
2013-08-22 12:30:00,67.4,66.5,30.08,South,175,0.0,2.0,97,0.05,,,1.64,Wunderground v.1.15,2013-08-22 17:30:00,
2013-08-22 12:35:00,67.5,66.6,30.08,South,175,0.0,1.0,97,0.04,,,1.65,Wunderground v.1.15,2013-08-22 17:35:00,
2013-08-22 12:40:00,67.5,66.6,30.07,South,175,0.0,0.0,97,0.04,,,1.65,Wunderground v.1.15,2013-08-22 17:40:00,
2013-08-22 12:46:00,67.5,66.6,30.08,North,350,3.0,3.0,97,0.04,,,1.65,Wunderground v.1.15,2013-08-22 17:46:00,
2013-08-22 12:52:00,67.6,66.7,30.08,NNW,335,1.0,2.0,97,0.00,,,1.65,Wunderground v.1.15,2013-08-22 17:52:00,
2013-08-22 12:57:00,67.7,66.8,30.07,NW,313,2.0,3.0,97,0.00,,,1.65,Wunderground v.1.15,2013-08-22 17:57:00,
2013-08-22 13:03:00,67.8,66.9,30.07,North,350,5.0,5.0,97,0.00,,,1.65,Wunderground v.1.15,2013-08-22 18:03:00,
2013-08-22 13:08:00,67.9,67.0,30.06,NNW,338,1.0,5.0,97,0.00,,,1.65,Wunderground v.1.15,2013-08-22 18:08:00,
2013-08-22 13:13:00,68.2,67.3,30.06,NNW,329,2.0,4.0,97,0.00,,,1.65,Wunderground v.1.15,2013-08-22 18:13:00,
2013-08-22 13:18:00,68.4,67.5,30.06,NNW,342,0.0,4.0,97,0.00,,,1.65,Wunderground v.1.15,2013-08-22 18:18:00,
2013-08-22 13:24:00,68.7,67.8,30.06,NNE,24,2.0,4.0,97,0.00,,,1.65,Wunderground v.1.15,2013-08-22 18:24:00,
2013-08-22 13:29:00,68.5,67.6,30.06,North,5,3.0,6.0,97,0.00,,,1.65,Wunderground v.1.15,2013-08-22 18:29:00,
2013-08-22 13:34:00,68.8,67.9,30.06,NNW,344,1.0,4.0,97,0.00,,,1.65,Wunderground v.1.15,2013-08-22 18:34:00,
2013-08-22 13:39:00,69.0,68.1,30.06,NNE,33,1.0,4.0,97,0.00,,,1.65,Wunderground v.1.15,2013-08-22 18:39:00,
2013-08-22 13:44:00,69.3,68.4,30.06,North,355,0.0,4.0,97,0.00,,,1.65,Wunderground v.1.15,2013-08-22 18:44:00,
2013-08-22 13:49:00,69.4,68.5,30.06,North,355,0.0,4.0,97,0.00,,,1.65,Wunderground v.1.15,2013-08-22 18:49:00,
2013-08-22 13:54:00,69.5,68.6,30.06,NNE,15,0.0,2.0,97,0.00,,,1.65,Wunderground v.1.15,2013-08-22 18:54:00,
2013-08-22 13:59:00,69.7,68.8,30.05,NNW,342,1.0,3.0,97,0.00,,,1.65,Wunderground v.1.15,2013-08-22 18:59:00,
2013-08-22 14:04:00,69.5,68.6,30.05,NNE,21,0.0,3.0,97,0.00,,,1.65,Wunderground v.1.15,2013-08-22 19:04:00,
2013-08-22 14:10:00,69.8,68.9,30.05,North,5,2.0,2.0,97,0.00,,,1.65,Wunderground v.1.15,2013-08-22 19:10:00,
2013-08-22 14:15:00,69.9,69.0,30.05,NE,42,0.0,3.0,97,0.00,,,1.65,Wunderground v.1.15,2013-08-22 19:15:00,
2013-08-22 14:20:00,70.1,69.2,30.05,NNE,25,0.0,1.0,97,0.00,,,1.65,Wunderground v.1.15,2013-08-22 19:20:00,
2013-08-22 14:26:00,70.3,69.4,30.04,NNE,12,0.0,2.0,97,0.00,,,1.65,Wunderground v.1.15,2013-08-22 19:26:00,
2013-08-22 14:31:00,70.3,69.4,30.04,ENE,60,0.0,3.0,97,0.00,,,1.65,Wunderground v.1.15,2013-08-22 19:31:00,
2013-08-22 14:36:00,70.4,69.5,30.04,ENE,68,3.0,3.0,97,0.00,,,1.65,Wunderground v.1.15,2013-08-22 19:36:00,
2013-08-22 14:41:00,70.6,69.4,30.04,ENE,78,3.0,3.0,96,0.00,,,1.65,Wunderground v.1.15,2013-08-22 19:41:00,
2013-08-22 14:46:00,70.6,69.4,30.03,East,94,3.0,3.0,96,0.00,,,1.65,Wunderground v.1.15,2013-08-22 19:46:00,
2013-08-22 14:51:00,70.6,69.4,30.03,ENE,76,1.0,2.0,96,0.00,,,1.65,Wunderground v.1.15,2013-08-22 19:51:00,
2013-08-22 14:57:00,70.8,69.3,30.02,East,80,1.0,5.0,95,0.00,,,1.65,Wunderground v.1.15,2013-08-22 19:57:00,
2013-08-22 15:02:00,71.0,69.5,30.02,East,90,2.0,4.0,95,0.00,,,1.65,Wunderground v.1.15,2013-08-22 20:02:00,
2013-08-22 15:07:00,71.1,69.6,30.02,East,84,2.0,4.0,95,0.00,,,1.65,Wunderground v.1.15,2013-08-22 20:07:00,
2013-08-22 15:12:00,71.3,69.8,30.02,ESE,111,4.0,4.0,95,0.00,,,1.65,Wunderground v.1.15,2013-08-22 20:12:00,
2013-08-22 15:17:00,71.4,69.6,30.01,East,86,1.0,7.0,94,0.00,,,1.65,Wunderground v.1.15,2013-08-22 20:17:00,
2013-08-22 15:22:00,71.7,69.9,30.01,ESE,103,1.0,5.0,94,0.00,,,1.65,Wunderground v.1.15,2013-08-22 20:22:00,
2013-08-22 15:27:00,71.9,70.1,30.01,ENE,74,2.0,5.0,94,0.00,,,1.65,Wunderground v.1.15,2013-08-22 20:27:00,
2013-08-22 15:32:00,72.0,70.2,30.01,NE,55,3.0,5.0,94,0.00,,,1.65,Wunderground v.1.15,2013-08-22 20:32:00,
2013-08-22 15:37:00,72.2,70.1,30.01,East,87,5.0,5.0,93,0.00,,,1.65,Wunderground v.1.15,2013-08-22 20:37:00,
2013-08-22 15:42:00,72.5,70.4,30.00,East,86,3.0,7.0,93,0.00,,,1.65,Wunderground v.1.15,2013-08-22 20:42:00,
2013-08-22 15:48:00,72.7,70.6,30.00,ESE,107,4.0,7.0,93,0.00,,,1.65,Wunderground v.1.15,2013-08-22 20:48:00,
2013-08-22 15:53:00,72.9,70.4,30.00,East,86,5.0,6.0,92,0.00,,,1.65,Wunderground v.1.15,2013-08-22 20:53:00,
2013-08-22 15:58:00,73.3,70.8,30.00,East,80,4.0,9.0,92,0.00,,,1.65,Wunderground v.1.15,2013-08-22 20:58:00,
2013-08-22 16:03:00,73.7,70.9,29.99,East,89,7.0,7.0,91,0.00,,,1.65,Wunderground v.1.15,2013-08-22 21:03:00,
2013-08-22 16:08:00,74.0,70.9,30.00,ESE,109,0.0,7.0,90,0.00,,,1.65,Wunderground v.1.15,2013-08-22 21:08:00,
2013-08-22 16:14:00,74.4,70.9,30.00,SE,130,1.0,6.0,89,0.00,,,1.65,Wunderground v.1.15,2013-08-22 21:14:00,
2013-08-22 16:19:00,74.9,71.1,30.01,SSE,157,1.0,6.0,88,0.00,,,1.65,Wunderground v.1.15,2013-08-22 21:19:00,
2013-08-22 16:25:00,75.4,71.3,30.02,SSW,194,2.0,4.0,87,0.00,,,1.65,Wunderground v.1.15,2013-08-22 21:25:00,
2013-08-22 16:31:00,75.9,71.4,30.02,SSW,194,0.0,1.0,86,0.00,,,1.65,Wunderground v.1.15,2013-08-22 21:31:00,
2013-08-22 16:36:00,76.1,71.3,30.03,SSW,194,0.0,3.0,85,0.00,,,1.65,Wunderground v.1.15,2013-08-22 21:36:00,
2013-08-22 16:41:00,76.2,71.0,30.03,NNW,327,2.0,3.0,84,0.00,,,1.65,Wunderground v.1.15,2013-08-22 21:41:00,
2013-08-22 16:46:00,76.1,70.9,30.04,NW,322,3.0,3.0,84,0.00,,,1.65,Wunderground v.1.15,2013-08-22 21:46:00,
2013-08-22 16:51:00,76.3,71.8,30.03,North,351,2.0,3.0,86,0.00,,,1.65,Wunderground v.1.15,2013-08-22 21:51:00,
2013-08-22 16:56:00,76.3,71.1,30.03,WNW,302,2.0,4.0,84,0.00,,,1.65,Wunderground v.1.15,2013-08-22 21:56:00,
2013-08-22 17:01:00,76.3,71.1,30.03,West,266,0.0,1.0,84,0.00,,,1.65,Wunderground v.1.15,2013-08-22 22:01:00,
2013-08-22 17:06:00,76.0,70.5,30.04,NW,325,3.0,4.0,83,0.00,,,1.65,Wunderground v.1.15,2013-08-22 22:06:00,
2013-08-22 17:12:00,75.6,70.8,30.03,NW,317,1.0,4.0,85,0.00,,,1.65,Wunderground v.1.15,2013-08-22 22:12:00,
2013-08-22 17:17:00,75.4,70.6,30.04,NW,317,0.0,4.0,85,0.00,,,1.65,Wunderground v.1.15,2013-08-22 22:17:00,
2013-08-22 17:22:00,75.4,70.9,30.04,NW,317,0.0,1.0,86,0.00,,,1.65,Wunderground v.1.15,2013-08-22 22:22:00,
2013-08-22 17:27:00,75.4,70.9,30.04,NW,317,0.0,2.0,86,0.00,,,1.65,Wunderground v.1.15,2013-08-22 22:27:00,
2013-08-22 17:32:00,75.5,71.0,30.04,NW,317,0.0,2.0,86,0.00,,,1.65,Wunderground v.1.15,2013-08-22 22:32:00,
2013-08-22 17:37:00,75.7,71.6,30.04,NW,315,2.0,4.0,87,0.00,,,1.65,Wunderground v.1.15,2013-08-22 22:37:00,
2013-08-22 17:42:00,75.9,71.1,30.04,NW,319,0.0,3.0,85,0.00,,,1.65,Wunderground v.1.15,2013-08-22 22:42:00,
2013-08-22 17:47:00,76.0,71.2,30.04,NW,325,5.0,6.0,85,0.00,,,1.65,Wunderground v.1.15,2013-08-22 22:47:00,
2013-08-22 17:52:00,76.4,71.6,30.04,NW,313,4.0,6.0,85,0.00,,,1.65,Wunderground v.1.15,2013-08-22 22:52:00,
2013-08-22 17:57:00,76.6,71.4,30.04,NW,312,0.0,6.0,84,0.00,,,1.65,Wunderground v.1.15,2013-08-22 22:57:00,
2013-08-22 18:02:00,76.6,71.4,30.04,NW,313,2.0,5.0,84,0.00,,,1.65,Wunderground v.1.15,2013-08-22 23:02:00,
2013-08-22 18:07:00,76.2,71.0,30.04,NNW,327,4.0,6.0,84,0.00,,,1.65,Wunderground v.1.15,2013-08-22 23:07:00,
2013-08-22 18:13:00,75.7,70.9,30.04,NW,313,0.0,3.0,85,0.00,,,1.65,Wunderground v.1.15,2013-08-22 23:13:00,
2013-08-22 18:17:00,75.6,71.1,30.05,NW,311,0.0,4.0,86,0.00,,,1.65,Wunderground v.1.15,2013-08-22 23:17:00,
2013-08-22 18:22:00,75.6,71.1,30.05,WNW,288,0.0,1.0,86,0.00,,,1.65,Wunderground v.1.15,2013-08-22 23:22:00,
2013-08-22 18:27:00,75.7,70.9,30.05,West,270,0.0,2.0,85,0.00,,,1.65,Wunderground v.1.15,2013-08-22 23:27:00,
2013-08-22 18:33:00,75.5,70.7,30.05,WSW,239,3.0,3.0,85,0.00,,,1.65,Wunderground v.1.15,2013-08-22 23:33:00,
2013-08-22 18:38:00,75.3,70.5,30.05,SW,234,1.0,3.0,85,0.00,,,1.65,Wunderground v.1.15,2013-08-22 23:38:00,
2013-08-22 18:43:00,75.1,70.3,30.05,SW,234,0.0,1.0,85,0.00,,,1.65,Wunderground v.1.15,2013-08-22 23:43:00,
2013-08-22 18:48:00,74.9,70.4,30.05,SW,234,1.0,1.0,86,0.00,,,1.65,Wunderground v.1.15,2013-08-22 23:48:00,
2013-08-22 18:53:00,74.7,70.2,30.06,SW,234,0.0,3.0,86,0.00,,,1.65,Wunderground v.1.15,2013-08-22 23:53:00,
2013-08-22 18:58:00,74.4,70.3,30.06,SW,234,1.0,3.0,87,0.00,,,1.65,Wunderground v.1.15,2013-08-22 23:58:00,
2013-08-22 19:03:00,74.1,70.0,30.06,SW,234,0.0,3.0,87,0.00,,,1.65,Wunderground v.1.15,2013-08-23 00:03:00,
2013-08-22 19:08:00,73.8,69.7,30.06,SW,234,2.0,3.0,87,0.00,,,1.65,Wunderground v.1.15,2013-08-23 00:08:00,
2013-08-22 19:14:00,73.3,69.5,30.06,SW,234,0.0,1.0,88,0.00,,,1.65,Wunderground v.1.15,2013-08-23 00:14:00,
2013-08-22 19:19:00,73.0,69.2,30.06,SW,234,0.0,1.0,88,0.00,,,1.65,Wunderground v.1.15,2013-08-23 00:19:00,
2013-08-22 19:24:00,72.7,69.3,30.06,SW,234,0.0,1.0,89,0.00,,,1.65,Wunderground v.1.15,2013-08-23 00:24:00,
2013-08-22 19:29:00,72.4,69.0,30.06,SW,234,0.0,1.0,89,0.00,,,1.65,Wunderground v.1.15,2013-08-23 00:29:00,
2013-08-22 19:34:00,72.0,68.9,30.06,SW,234,0.0,1.0,90,0.00,,,1.65,Wunderground v.1.15,2013-08-23 00:34:00,
2013-08-22 19:40:00,71.5,68.4,30.06,SW,234,0.0,0.0,90,0.00,,,1.65,Wunderground v.1.15,2013-08-23 00:40:00,
2013-08-22 19:45:00,71.1,68.3,30.06,SW,234,0.0,1.0,91,0.00,,,1.65,Wunderground v.1.15,2013-08-23 00:45:00,
2013-08-22 19:50:00,70.7,68.3,30.07,SW,234,0.0,1.0,92,0.00,,,1.65,Wunderground v.1.15,2013-08-23 00:50:00,
2013-08-22 19:55:00,70.5,68.1,30.07,SW,234,1.0,2.0,92,0.00,,,1.65,Wunderground v.1.15,2013-08-23 00:55:00,
2013-08-22 20:00:00,70.1,67.7,30.07,SW,234,0.0,1.0,92,0.00,,,1.65,Wunderground v.1.15,2013-08-23 01:00:00,
2013-08-22 20:05:00,70.0,67.9,30.07,SW,234,0.0,1.0,93,0.00,,,1.65,Wunderground v.1.15,2013-08-23 01:05:00,
2013-08-22 20:11:00,69.7,67.6,30.07,SW,234,0.0,2.0,93,0.00,,,1.65,Wunderground v.1.15,2013-08-23 01:11:00,
2013-08-22 20:16:00,69.6,67.5,30.07,SW,234,0.0,2.0,93,0.00,,,1.65,Wunderground v.1.15,2013-08-23 01:16:00,
2013-08-22 20:21:00,69.5,67.4,30.07,SW,234,0.0,1.0,93,0.00,,,1.65,Wunderground v.1.15,2013-08-23 01:21:00,
2013-08-22 20:26:00,69.5,67.7,30.08,East,84,4.0,4.0,94,0.00,,,1.65,Wunderground v.1.15,2013-08-23 01:26:00,
2013-08-22 20:32:00,69.9,68.1,30.08,ESE,107,1.0,4.0,94,0.00,,,1.65,Wunderground v.1.15,2013-08-23 01:32:00,
2013-08-22 20:37:00,70.4,68.6,30.08,ESE,117,5.0,6.0,94,0.00,,,1.65,Wunderground v.1.15,2013-08-23 01:37:00,
2013-08-22 20:42:00,70.9,69.1,30.08,East,86,3.0,3.0,94,2.20,,,1.70,Wunderground v.1.15,2013-08-23 01:42:00,
2013-08-22 20:47:00,70.9,68.8,30.09,ESE,102,4.0,4.0,93,0.32,,,1.79,Wunderground v.1.15,2013-08-23 01:47:00,
2013-08-22 20:52:00,70.6,68.5,30.08,ESE,109,0.0,3.0,93,0.13,,,1.80,Wunderground v.1.15,2013-08-23 01:52:00,
2013-08-22 20:57:00,70.3,68.2,30.09,ESE,108,0.0,3.0,93,0.09,,,1.80,Wunderground v.1.15,2013-08-23 01:57:00,
2013-08-22 21:02:00,69.9,67.8,30.09,ESE,108,1.0,2.0,93,0.05,,,1.80,Wunderground v.1.15,2013-08-23 02:02:00,
2013-08-22 21:07:00,69.7,67.6,30.10,ESE,108,0.0,2.0,93,0.04,,,1.80,Wunderground v.1.15,2013-08-23 02:07:00,
2013-08-22 21:12:00,69.5,67.7,30.10,ESE,108,0.0,0.0,94,0.00,,,1.80,Wunderground v.1.15,2013-08-23 02:12:00,
2013-08-22 21:17:00,69.3,67.2,30.10,ESE,108,0.0,1.0,93,0.00,,,1.80,Wunderground v.1.15,2013-08-23 02:17:00,
2013-08-22 21:23:00,69.1,67.3,30.10,ESE,108,0.0,0.0,94,0.00,,,1.80,Wunderground v.1.15,2013-08-23 02:23:00,
2013-08-22 21:27:00,68.9,67.1,30.10,ESE,108,0.0,1.0,94,0.00,,,1.80,Wunderground v.1.15,2013-08-23 02:27:00,
2013-08-22 21:33:00,68.3,66.2,30.10,ESE,108,0.0,1.0,93,0.00,,,1.80,Wunderground v.1.15,2013-08-23 02:33:00,
2013-08-22 21:38:00,67.9,65.8,30.10,ESE,108,0.0,1.0,93,0.00,,,1.80,Wunderground v.1.15,2013-08-23 02:38:00,
2013-08-22 21:43:00,67.5,65.4,30.10,ESE,108,0.0,0.0,93,0.00,,,1.80,Wunderground v.1.15,2013-08-23 02:43:00,
2013-08-22 21:48:00,67.1,64.7,30.11,ESE,108,0.0,1.0,92,0.00,,,1.80,Wunderground v.1.15,2013-08-23 02:48:00,
2013-08-22 21:53:00,66.7,64.3,30.11,ESE,108,0.0,0.0,92,0.00,,,1.80,Wunderground v.1.15,2013-08-23 02:53:00,
2013-08-22 21:58:00,66.3,63.9,30.11,ESE,108,0.0,0.0,92,0.00,,,1.80,Wunderground v.1.15,2013-08-23 02:58:00,
2013-08-22 22:03:00,65.9,63.5,30.11,ESE,108,0.0,0.0,92,0.00,,,1.80,Wunderground v.1.15,2013-08-23 03:03:00,
2013-08-22 22:09:00,65.6,63.5,30.11,ESE,108,0.0,0.0,93,0.00,,,1.80,Wunderground v.1.15,2013-08-23 03:09:00,
2013-08-22 22:14:00,65.4,63.3,30.11,ESE,108,0.0,1.0,93,0.00,,,1.80,Wunderground v.1.15,2013-08-23 03:14:00,
2013-08-22 22:20:00,65.2,63.1,30.11,ESE,108,0.0,1.0,93,0.00,,,1.80,Wunderground v.1.15,2013-08-23 03:20:00,
2013-08-22 22:25:00,64.9,62.8,30.11,ESE,108,0.0,0.0,93,0.00,,,1.80,Wunderground v.1.15,2013-08-23 03:25:00,
2013-08-22 22:31:00,64.6,62.5,30.11,ESE,108,0.0,0.0,93,0.00,,,1.80,Wunderground v.1.15,2013-08-23 03:31:00,
2013-08-22 22:36:00,64.4,62.3,30.12,ESE,108,0.0,0.0,93,0.00,,,1.80,Wunderground v.1.15,2013-08-23 03:36:00,
2013-08-22 22:41:00,64.0,61.9,30.12,ESE,108,0.0,0.0,93,0.00,,,1.80,Wunderground v.1.15,2013-08-23 03:41:00,
2013-08-22 22:47:00,63.6,61.5,30.12,ESE,108,0.0,0.0,93,0.00,,,1.80,Wunderground v.1.15,2013-08-23 03:47:00,
2013-08-22 22:52:00,63.4,61.6,30.11,ESE,108,0.0,0.0,94,0.00,,,1.80,Wunderground v.1.15,2013-08-23 03:52:00,
2013-08-22 22:57:00,63.1,61.0,30.12,ESE,108,0.0,0.0,93,0.00,,,1.80,Wunderground v.1.15,2013-08-23 03:57:00,
2013-08-22 23:01:00,62.9,60.8,30.12,ESE,108,0.0,0.0,93,0.00,,,1.80,Wunderground v.1.15,2013-08-23 04:01:00,
2013-08-22 23:02:00,62.9,60.8,30.12,ESE,108,0.0,0.0,93,0.00,,,1.80,Wunderground v.1.15,2013-08-23 04:02:00,
2013-08-22 23:07:00,62.6,60.8,30.12,ESE,108,0.0,0.0,94,0.00,,,1.80,Wunderground v.1.15,2013-08-23 04:07:00,
2013-08-22 23:12:00,62.4,60.7,30.12,ESE,108,0.0,0.0,94,0.00,,,1.80,Wunderground v.1.15,2013-08-23 04:12:00,
2013-08-22 23:17:00,62.3,60.6,30.12,ESE,108,0.0,0.0,94,0.00,,,1.80,Wunderground v.1.15,2013-08-23 04:17:00,
2013-08-22 23:22:00,62.1,60.4,30.12,ESE,108,0.0,0.0,94,0.00,,,1.80,Wunderground v.1.15,2013-08-23 04:22:00,
2013-08-22 23:27:00,61.9,60.2,30.12,ESE,108,0.0,0.0,94,0.00,,,1.80,Wunderground v.1.15,2013-08-23 04:27:00,
2013-08-22 23:32:00,61.8,60.4,30.12,ESE,108,0.0,0.0,95,0.00,,,1.80,Wunderground v.1.15,2013-08-23 04:32:00,
2013-08-22 23:37:00,61.7,60.3,30.12,ESE,108,0.0,0.0,95,0.00,,,1.80,Wunderground v.1.15,2013-08-23 04:37:00,
2013-08-22 23:42:00,61.5,60.1,30.12,ESE,108,0.0,0.0,95,0.00,,,1.80,Wunderground v.1.15,2013-08-23 04:42:00,
2013-08-22 23:47:00,61.4,60.0,30.12,ESE,108,0.0,0.0,95,0.00,,,1.80,Wunderground v.1.15,2013-08-23 04:47:00,
2013-08-22 23:53:00,61.2,59.8,30.12,ESE,108,0.0,0.0,95,0.00,,,1.80,Wunderground v.1.15,2013-08-23 04:53:00,
2013-08-22 23:59:00,60.9,59.5,30.12,ESE,108,0.0,0.0,95,0.00,,,1.80,Wunderground v.1.15,2013-08-23 04:59:00,